When you browse on this site, cookies collect data to enhance your experience and personalize the content and advertising you see.
Visit our Privacy Policy to learn more. By continuing to use the site, you agree to this use of cookies and data.

Météo par heure à Benito Juárez

Ce jour, 10 Juillet, Vendredi

Heure Température Précipitation Vent Pression Humidité
00:00 +19°C° 0 mm 2 m/s 673 mmHg 82%
01:00 +19°C° 0 mm 2 m/s 673 mmHg 79%
02:00 +19°C° 0 mm 2 m/s 673 mmHg 76%
03:00 +19°C° 0 mm 2 m/s 673 mmHg 74%
04:00 +19°C° 0 mm 2 m/s 673 mmHg 72%
05:00 +19°C° 0 mm 2 m/s 673 mmHg 70%
06:00 +22°C° 0 mm 1 m/s 673 mmHg 67%
07:00 +25°C° 0 mm 1 m/s 674 mmHg 64%
08:00 +25°C° 0 mm 0 m/s 675 mmHg 62%
09:00 +28°C° 0 mm 1 m/s 675 mmHg 58%
10:00 +29°C° 0 mm 1 m/s 675 mmHg 55%
11:00 +31°C° 0 mm 1 m/s 675 mmHg 52%
12:00 +31°C° 0.1 mm 1 m/s 674 mmHg 53%
13:00 +31°C° 0.1 mm 1 m/s 673 mmHg 54%
14:00 +31°C° 0.1 mm 1 m/s 672 mmHg 55%
15:00 +30°C° 0.5 mm 1 m/s 672 mmHg 62%
16:00 +29°C° 0.5 mm 1 m/s 672 mmHg 69%
17:00 +27°C° 0.5 mm 0 m/s 671 mmHg 76%
18:00 +27°C° 0.2 mm 1 m/s 672 mmHg 77%
19:00 +25°C° 0.2 mm 1 m/s 672 mmHg 79%
20:00 +23°C° 0.2 mm 2 m/s 672 mmHg 81%
21:00 +23°C° 0 mm 2 m/s 673 mmHg 80%
22:00 +23°C° 0 mm 2 m/s 673 mmHg 79%
23:00 +21°C° 0 mm 2 m/s 673 mmHg 78%

Demain, 11 Juillet, Samedi

Heure Température Précipitation Vent Pression Humidité
00:00 +21°C° 0.1 mm 2 m/s 672 mmHg 79%
01:00 +20°C° 0.1 mm 2 m/s 672 mmHg 79%
02:00 +20°C° 0.1 mm 2 m/s 672 mmHg 80%
03:00 +20°C° 0 mm 2 m/s 672 mmHg 78%
04:00 +20°C° 0 mm 2 m/s 672 mmHg 77%
05:00 +20°C° 0 mm 2 m/s 672 mmHg 76%
06:00 +23°C° 0 mm 2 m/s 673 mmHg 72%
07:00 +25°C° 0 mm 1 m/s 673 mmHg 68%
08:00 +25°C° 0 mm 0 m/s 674 mmHg 64%
09:00 +28°C° 0 mm 1 m/s 674 mmHg 61%
10:00 +29°C° 0 mm 1 m/s 674 mmHg 58%
11:00 +31°C° 0 mm 1 m/s 674 mmHg 54%
12:00 +31°C° 0.3 mm 1 m/s 673 mmHg 56%
13:00 +31°C° 0.3 mm 1 m/s 673 mmHg 58%
14:00 +31°C° 0.3 mm 1 m/s 672 mmHg 60%
15:00 +30°C° 0.6 mm 1 m/s 672 mmHg 66%
16:00 +28°C° 0.6 mm 1 m/s 671 mmHg 72%
17:00 +25°C° 0.6 mm 0 m/s 671 mmHg 78%
18:00 +26°C° 1.2 mm 1 m/s 671 mmHg 81%
19:00 +25°C° 1.2 mm 1 m/s 672 mmHg 85%
20:00 +23°C° 1.2 mm 2 m/s 672 mmHg 88%
21:00 +23°C° 0.6 mm 2 m/s 673 mmHg 88%
22:00 +23°C° 0.6 mm 2 m/s 673 mmHg 89%
23:00 +21°C° 0.6 mm 2 m/s 673 mmHg 89%

Après-demain, 12 Juillet, Dimanche

Heure Température Précipitation Vent Pression Humidité
00:00 +21°C° 0.1 mm 2 m/s 673 mmHg 88%
01:00 +21°C° 0.1 mm 1 m/s 673 mmHg 88%
02:00 +21°C° 0.1 mm 1 m/s 673 mmHg 87%
03:00 +21°C° 0 mm 1 m/s 673 mmHg 86%
04:00 +21°C° 0 mm 1 m/s 672 mmHg 86%
05:00 +21°C° 0 mm 1 m/s 672 mmHg 85%
06:00 +23°C° 0 mm 1 m/s 673 mmHg 80%
07:00 +24°C° 0 mm 1 m/s 674 mmHg 76%
08:00 +24°C° 0 mm 0 m/s 674 mmHg 72%
09:00 +27°C° 0.3 mm 1 m/s 674 mmHg 70%
10:00 +28°C° 0.3 mm 1 m/s 674 mmHg 69%
11:00 +29°C° 0.3 mm 2 m/s 673 mmHg 68%
12:00 +29°C° 0.9 mm 1 m/s 673 mmHg 68%
13:00 +29°C° 0.9 mm 1 m/s 672 mmHg 67%
14:00 +30°C° 0.9 mm 1 m/s 672 mmHg 67%
15:00 +29°C° 1.2 mm 1 m/s 671 mmHg 73%
16:00 +28°C° 1.2 mm 1 m/s 671 mmHg 78%
17:00 +27°C° 1.2 mm 1 m/s 670 mmHg 83%
18:00 +25°C° 2.7 mm 1 m/s 671 mmHg 86%
19:00 +24°C° 2.7 mm 1 m/s 672 mmHg 89%
20:00 +23°C° 2.7 mm 1 m/s 672 mmHg 92%
21:00 +22°C° 1.3 mm 1 m/s 672 mmHg 93%
22:00 +22°C° 1.3 mm 1 m/s 673 mmHg 93%
23:00 +21°C° 1.3 mm 1 m/s 673 mmHg 94%

13 Juillet, Lundi

Heure Température Précipitation Vent Pression Humidité
00:00 +21°C° 0.6 mm 1 m/s 673 mmHg 93%
01:00 +20°C° 0.6 mm 1 m/s 673 mmHg 93%
02:00 +20°C° 0.6 mm 1 m/s 672 mmHg 93%
03:00 +20°C° 0.1 mm 1 m/s 672 mmHg 92%
04:00 +20°C° 0.1 mm 1 m/s 672 mmHg 92%
05:00 +19°C° 0.1 mm 1 m/s 672 mmHg 91%
06:00 +21°C° 0 mm 1 m/s 673 mmHg 87%
07:00 +23°C° 0 mm 1 m/s 674 mmHg 82%
08:00 +23°C° 0 mm 0 m/s 674 mmHg 78%
09:00 +27°C° 0.3 mm 1 m/s 674 mmHg 75%
10:00 +28°C° 0.3 mm 1 m/s 674 mmHg 72%
11:00 +29°C° 0.3 mm 1 m/s 674 mmHg 70%
12:00 +29°C° 0.7 mm 1 m/s 673 mmHg 69%
13:00 +29°C° 0.7 mm 1 m/s 673 mmHg 68%
14:00 +29°C° 0.7 mm 1 m/s 672 mmHg 68%
15:00 +29°C° 0.9 mm 1 m/s 672 mmHg 72%
16:00 +28°C° 0.9 mm 1 m/s 671 mmHg 77%
17:00 +25°C° 0.9 mm 0 m/s 671 mmHg 82%
18:00 +26°C° 0.6 mm 1 m/s 672 mmHg 84%
19:00 +24°C° 0.6 mm 1 m/s 672 mmHg 86%
20:00 +23°C° 0.6 mm 1 m/s 672 mmHg 88%
21:00 +23°C° 0.6 mm 1 m/s 672 mmHg 87%
22:00 +22°C° 0.6 mm 1 m/s 673 mmHg 86%
23:00 +22°C° 0.6 mm 1 m/s 673 mmHg 85%

14 Juillet, Mardi

Heure Température Précipitation Vent Pression Humidité
00:00 +21°C° 0.4 mm 1 m/s 672 mmHg 86%
01:00 +21°C° 0.4 mm 1 m/s 672 mmHg 86%
02:00 +21°C° 0.4 mm 1 m/s 672 mmHg 87%
03:00 +20°C° 0.1 mm 1 m/s 672 mmHg 87%
04:00 +20°C° 0.1 mm 1 m/s 672 mmHg 86%
05:00 +20°C° 0.1 mm 1 m/s 672 mmHg 86%
06:00 +22°C° 0 mm 1 m/s 673 mmHg 82%
07:00 +24°C° 0 mm 1 m/s 673 mmHg 77%
08:00 +24°C° 0 mm 0 m/s 674 mmHg 72%
09:00 +27°C° 0.1 mm 1 m/s 674 mmHg 70%
10:00 +28°C° 0.1 mm 1 m/s 673 mmHg 68%
11:00 +30°C° 0.1 mm 2 m/s 673 mmHg 66%
12:00 +30°C° 0.3 mm 2 m/s 673 mmHg 66%
13:00 +30°C° 0.3 mm 1 m/s 672 mmHg 66%
14:00 +30°C° 0.3 mm 1 m/s 671 mmHg 67%
15:00 +29°C° 0.4 mm 1 m/s 671 mmHg 71%
16:00 +29°C° 0.4 mm 1 m/s 671 mmHg 75%
17:00 +28°C° 0.4 mm 1 m/s 670 mmHg 79%
18:00 +27°C° 0.8 mm 1 m/s 671 mmHg 83%
19:00 +25°C° 0.8 mm 1 m/s 671 mmHg 86%
20:00 +24°C° 0.8 mm 1 m/s 671 mmHg 89%
21:00 +23°C° 0.9 mm 1 m/s 671 mmHg 88%
22:00 +23°C° 0.9 mm 1 m/s 672 mmHg 87%
23:00 +23°C° 0.9 mm 1 m/s 672 mmHg 86%

15 Juillet, Mercredi

Heure Température Précipitation Vent Pression Humidité
00:00 +22°C° 1.1 mm 1 m/s 672 mmHg 88%
01:00 +22°C° 1.1 mm 1 m/s 671 mmHg 89%
02:00 +21°C° 1.1 mm 1 m/s 671 mmHg 91%
03:00 +21°C° 0.1 mm 1 m/s 671 mmHg 90%
04:00 +21°C° 0.1 mm 1 m/s 671 mmHg 90%
05:00 +21°C° 0.1 mm 1 m/s 671 mmHg 90%
06:00 +23°C° 0 mm 1 m/s 672 mmHg 84%
07:00 +25°C° 0 mm 1 m/s 673 mmHg 79%
08:00 +25°C° 0 mm 0 m/s 674 mmHg 74%
09:00 +28°C° 0.1 mm 1 m/s 673 mmHg 71%
10:00 +29°C° 0.1 mm 1 m/s 673 mmHg 68%
11:00 +30°C° 0.1 mm 2 m/s 673 mmHg 65%
12:00 +30°C° 0.2 mm 1 m/s 672 mmHg 65%
13:00 +31°C° 0.2 mm 1 m/s 671 mmHg 65%
14:00 +31°C° 0.2 mm 1 m/s 671 mmHg 65%
15:00 +30°C° 0.8 mm 1 m/s 670 mmHg 71%
16:00 +29°C° 0.8 mm 1 m/s 670 mmHg 77%
17:00 +28°C° 0.8 mm 1 m/s 670 mmHg 82%
18:00 +27°C° 1.4 mm 1 m/s 670 mmHg 84%
19:00 +25°C° 1.4 mm 1 m/s 671 mmHg 87%
20:00 +24°C° 1.4 mm 1 m/s 671 mmHg 89%
21:00 +23°C° 1 mm 2 m/s 671 mmHg 89%
22:00 +21°C° 1 mm 2 m/s 671 mmHg 90%
23:00 +21°C° 1 mm 2 m/s 672 mmHg 90%
Voir plus